EN

Hourly Weather Ladawy

Today, 26 July, Monday

Time Temperature Precipitation Wind Pressure Humidity
00:00 +20°C° 0 mm 4 mps 749 mmHg 75%
01:00 +20°C° 0 mm 4 mps 749 mmHg 74%
02:00 +20°C° 0 mm 4 mps 749 mmHg 76%
03:00 +20°C° 0 mm 4 mps 748 mmHg 78%
04:00 +19°C° 0 mm 4 mps 748 mmHg 80%
05:00 +20°C° 0 mm 4 mps 748 mmHg 77%
06:00 +21°C° 0 mm 3 mps 748 mmHg 74%
07:00 +22°C° 0 mm 3 mps 748 mmHg 72%
08:00 +24°C° 0 mm 3 mps 748 mmHg 71%
09:00 +24°C° 0 mm 3 mps 748 mmHg 71%
10:00 +25°C° 0 mm 3 mps 749 mmHg 70%
11:00 +26°C° 0.5 mm 3 mps 749 mmHg 67%
12:00 +27°C° 0.5 mm 2 mps 748 mmHg 65%
13:00 +27°C° 0 mm 2 mps 748 mmHg 62%
14:00 +28°C° 0.6 mm 2 mps 748 mmHg 61%
15:00 +28°C° 0.6 mm 2 mps 748 mmHg 59%
16:00 +28°C° 0.6 mm 2 mps 748 mmHg 58%
17:00 +27°C° 0 mm 1 mps 748 mmHg 61%
18:00 +27°C° 0 mm 1 mps 748 mmHg 64%
19:00 +26°C° 0 mm 1 mps 748 mmHg 67%
20:00 +25°C° 0 mm 1 mps 748 mmHg 69%
21:00 +24°C° 0 mm 1 mps 748 mmHg 72%
22:00 +23°C° 0 mm 1 mps 748 mmHg 74%
23:00 +21°C° 0 mm 2 mps 748 mmHg 76%

Tomorrow, 27 July, Tuesday

Time Temperature Precipitation Wind Pressure Humidity
00:00 +21°C° 0 mm 2 mps 748 mmHg 78%
01:00 +20°C° 0 mm 3 mps 748 mmHg 80%
02:00 +20°C° 0.4 mm 3 mps 748 mmHg 84%
03:00 +19°C° 0.4 mm 4 mps 749 mmHg 89%
04:00 +18°C° 0.4 mm 4 mps 749 mmHg 93%
05:00 +19°C° 0.1 mm 3 mps 749 mmHg 91%
06:00 +20°C° 0.1 mm 3 mps 749 mmHg 89%
07:00 +20°C° 0.1 mm 3 mps 749 mmHg 86%
08:00 +22°C° 0 mm 3 mps 749 mmHg 80%
09:00 +24°C° 0 mm 3 mps 750 mmHg 73%
10:00 +25°C° 0 mm 3 mps 750 mmHg 67%
11:00 +26°C° 0 mm 3 mps 750 mmHg 62%
12:00 +28°C° 0 mm 3 mps 750 mmHg 56%
13:00 +29°C° 0 mm 3 mps 750 mmHg 51%
14:00 +29°C° 0 mm 3 mps 750 mmHg 48%
15:00 +30°C° 0 mm 3 mps 750 mmHg 46%
16:00 +30°C° 0 mm 3 mps 749 mmHg 44%
17:00 +29°C° 0 mm 3 mps 749 mmHg 49%
18:00 +28°C° 0 mm 2 mps 749 mmHg 53%
19:00 +27°C° 0 mm 2 mps 749 mmHg 58%
20:00 +25°C° 0.1 mm 2 mps 749 mmHg 62%
21:00 +24°C° 0.1 mm 2 mps 750 mmHg 66%
22:00 +21°C° 0.1 mm 2 mps 750 mmHg 71%
23:00 +22°C° 0.3 mm 1 mps 750 mmHg 73%

Day after tomorrow, 28 July, Wednesday

Time Temperature Precipitation Wind Pressure Humidity
00:00 +22°C° 0.3 mm 1 mps 750 mmHg 75%
01:00 +21°C° 0.3 mm 1 mps 750 mmHg 77%
02:00 +21°C° 0 mm 1 mps 750 mmHg 77%
03:00 +21°C° 0 mm 1 mps 749 mmHg 77%
04:00 +21°C° 0 mm 1 mps 749 mmHg 78%
05:00 +22°C° 0 mm 1 mps 749 mmHg 74%
06:00 +23°C° 0 mm 1 mps 749 mmHg 70%
07:00 +25°C° 0 mm 1 mps 749 mmHg 67%
08:00 +25°C° 0 mm 1 mps 749 mmHg 64%
09:00 +26°C° 0 mm 2 mps 749 mmHg 62%
10:00 +26°C° 0 mm 2 mps 749 mmHg 60%
11:00 +26°C° 0.1 mm 2 mps 749 mmHg 61%
12:00 +26°C° 0.1 mm 2 mps 749 mmHg 63%
13:00 +26°C° 0.1 mm 2 mps 749 mmHg 64%
14:00 +26°C° 0.1 mm 1 mps 749 mmHg 63%
15:00 +26°C° 0.1 mm 1 mps 749 mmHg 62%
16:00 +26°C° 0.1 mm 1 mps 749 mmHg 61%
17:00 +25°C° 0.1 mm 1 mps 749 mmHg 66%
18:00 +24°C° 0.1 mm 2 mps 749 mmHg 71%
19:00 +23°C° 0.1 mm 2 mps 749 mmHg 76%
20:00 +21°C° 0.6 mm 2 mps 749 mmHg 82%
21:00 +20°C° 0.6 mm 2 mps 749 mmHg 88%
22:00 +19°C° 0.6 mm 2 mps 749 mmHg 94%
23:00 +19°C° 0.1 mm 2 mps 749 mmHg 94%

29 July, Thursday

Time Temperature Precipitation Wind Pressure Humidity
00:00 +18°C° 0.1 mm 3 mps 749 mmHg 94%
01:00 +18°C° 0.1 mm 3 mps 749 mmHg 94%
02:00 +17°C° 0 mm 3 mps 750 mmHg 94%
03:00 +17°C° 0 mm 3 mps 750 mmHg 94%
04:00 +16°C° 0 mm 3 mps 750 mmHg 94%
05:00 +17°C° 0 mm 3 mps 750 mmHg 89%
06:00 +18°C° 0 mm 4 mps 750 mmHg 84%
07:00 +20°C° 0 mm 4 mps 750 mmHg 79%
08:00 +21°C° 0 mm 4 mps 750 mmHg 71%
09:00 +23°C° 0 mm 5 mps 750 mmHg 63%
10:00 +24°C° 0 mm 6 mps 750 mmHg 55%
11:00 +26°C° 0 mm 6 mps 749 mmHg 50%
12:00 +27°C° 0 mm 6 mps 749 mmHg 45%
13:00 +28°C° 0 mm 6 mps 749 mmHg 40%
14:00 +28°C° 0 mm 6 mps 749 mmHg 40%
15:00 +28°C° 0 mm 6 mps 749 mmHg 40%
16:00 +28°C° 0 mm 5 mps 748 mmHg 40%
17:00 +27°C° 0 mm 4 mps 748 mmHg 46%
18:00 +25°C° 0 mm 3 mps 748 mmHg 51%
19:00 +24°C° 0 mm 2 mps 748 mmHg 57%
20:00 +24°C° 0 mm 2 mps 748 mmHg 56%
21:00 +23°C° 0 mm 2 mps 748 mmHg 55%
22:00 +23°C° 0 mm 1 mps 748 mmHg 55%
23:00 +22°C° 0 mm 1 mps 748 mmHg 56%

30 July, Friday

Time Temperature Precipitation Wind Pressure Humidity
00:00 +22°C° 0 mm 1 mps 748 mmHg 58%
01:00 +21°C° 0 mm 1 mps 748 mmHg 59%
02:00 +21°C° 0 mm 1 mps 748 mmHg 62%
03:00 +20°C° 0 mm 1 mps 748 mmHg 64%
04:00 +19°C° 0 mm 1 mps 747 mmHg 67%
05:00 +20°C° 0 mm 1 mps 747 mmHg 65%
06:00 +20°C° 0 mm 2 mps 748 mmHg 64%
07:00 +21°C° 0 mm 2 mps 748 mmHg 62%
08:00 +23°C° 0 mm 2 mps 748 mmHg 58%
09:00 +25°C° 0 mm 3 mps 747 mmHg 53%
10:00 +26°C° 0 mm 4 mps 747 mmHg 48%
11:00 +27°C° 0 mm 4 mps 747 mmHg 46%
12:00 +28°C° 0 mm 5 mps 747 mmHg 43%
13:00 +28°C° 0 mm 5 mps 746 mmHg 40%
14:00 +28°C° 0 mm 5 mps 746 mmHg 40%
15:00 +28°C° 0 mm 5 mps 746 mmHg 40%
16:00 +28°C° 0 mm 5 mps 746 mmHg 40%
17:00 +27°C° 0 mm 4 mps 746 mmHg 46%
18:00 +25°C° 0 mm 3 mps 745 mmHg 52%
19:00 +24°C° 0 mm 2 mps 745 mmHg 58%
20:00 +23°C° 0 mm 2 mps 745 mmHg 59%
21:00 +21°C° 0 mm 2 mps 745 mmHg 59%
22:00 +20°C° 0 mm 2 mps 745 mmHg 60%
23:00 +20°C° 0 mm 1 mps 746 mmHg 60%

31 July, Saturday

Time Temperature Precipitation Wind Pressure Humidity
00:00 +20°C° 0 mm 1 mps 746 mmHg 60%
01:00 +18°C° 0 mm 0 mps 746 mmHg 60%
02:00 +18°C° 0 mm 0 mps 746 mmHg 59%
03:00 +20°C° 0 mm 1 mps 745 mmHg 58%
04:00 +21°C° 0 mm 1 mps 745 mmHg 57%
05:00 +21°C° 0 mm 1 mps 745 mmHg 58%
06:00 +22°C° 0 mm 1 mps 745 mmHg 58%
07:00 +21°C° 0 mm 2 mps 745 mmHg 59%
08:00 +24°C° 0 mm 2 mps 745 mmHg 55%
09:00 +26°C° 0 mm 3 mps 745 mmHg 51%
10:00 +27°C° 0 mm 4 mps 745 mmHg 47%
11:00 +28°C° 0 mm 5 mps 745 mmHg 47%
12:00 +28°C° 0 mm 6 mps 745 mmHg 46%
13:00 +28°C° 0 mm 6 mps 745 mmHg 46%
14:00 +27°C° 0 mm 6 mps 745 mmHg 46%
15:00 +27°C° 0 mm 6 mps 745 mmHg 46%
16:00 +26°C° 0 mm 6 mps 745 mmHg 46%
17:00 +24°C° 0 mm 6 mps 745 mmHg 49%
18:00 +22°C° 0 mm 5 mps 745 mmHg 52%
19:00 +21°C° 0 mm 4 mps 746 mmHg 55%
20:00 +20°C° 0 mm 4 mps 746 mmHg 57%
21:00 +19°C° 0 mm 3 mps 746 mmHg 60%
22:00 +18°C° 0 mm 3 mps 746 mmHg 62%
23:00 +18°C° 0 mm 3 mps 747 mmHg 64%
Show more